Back to catalog

STARLINK-6163

AliveCommunicationsVLEO
NORAD 57128·PAYLOAD·🇺🇸 United States

Launched Jun 23, 2023 from Cape Canaveral Space Force Station

Loading…

Next Passes (next 24 hours)

TLE

FreshSource: CelesTrak SupGP

Epoch: Sep 14, 2026, 13:45 UTC

1 57128C 23090AD  26257.57340278  .00053208  00000+0  19272-2 0  2572
2 57128  43.0020 294.5440 0001779 277.9010  61.6038 15.27550935    19

Track STARLINK-6163 in real time with AllMySat

Download on the App Store